Flag for Israel Weather past 2 weeks in Modi'in-Maccabim-Re'ut, Israel

Now
77 °F

Passing clouds.


Feels Like: 79 °F
Forecast: 65 / 77 °F
Wind: 12 mph from Northwest

Location: Ben Gurion International Airport

Current Time: May 28, 2015 at 6:09:02 PM

Latest Report: May 28, 2015 at 5:50 PM


Visibility: N/A

Pressure: 29.80 "Hg

Humidity: 65%

Dew point: 64 °F

Location of Modi'in-Maccabim-Re'utLocation

Historic Weather in Modi'in-Maccabim-Re'ut — Graph

°F

Modi'in-Maccabim-Re'ut temperature yesterday

Maximum temperature yesterday: 109 °F (at 4:20 PM)
Minimum temperature yesterday: 66 °F (at 6:20 AM)
Average temperature yesterday: 91 °F

Past Weeks' High & Low Weather Summary

 TemperatureHumidityPressure
High109 °F (May 27, 4:20 PM)83% (May 15, 4:20 AM)30.18 "Hg (May 15, 4:20 AM)
Low59 °F (May 16, 4:50 AM)6% (May 18, 12:20 PM)29.65 "Hg (May 27, 4:50 PM)
Average78 °F52%29.91 "Hg
* Reported May 13 4:20 PM — May 28 4:50 PM, Modi'in-Maccabim-Re'ut, Weather by CustomWeather, © 2015

Note: Actual official high and low records may vary slightly from our data, if they occured in-between our weather recording intervals... More about our weather records

Advertising

Modi'in-Maccabim-Re'ut weather history for previous 24 hours

 ConditionsComfort  
Time TempWeatherWind HumidityBarometerVisibility
4:50 PM
Thu, May 28
79 °FSunny.12 mph58%29.80 "Hg10 mi
4:20 PM81 °FSunny.14 mph58%29.80 "Hg10 mi
3:50 PM81 °FClear.13 mph58%29.80 "Hg6 mi
3:20 PM81 °FClear.12 mph54%29.80 "Hg6 mi
2:50 PM81 °FClear.14 mph54%29.80 "Hg6 mi
2:20 PM84 °FClear.15 mph55%29.80 "Hg5 mi
1:50 PM84 °FClear.14 mph51%29.80 "Hg5 mi
1:20 PM86 °FClear.10 mph43%29.80 "Hg5 mi
12:50 PM86 °FClear.12 mph40%29.80 "Hg6 mi
12:20 PM86 °FClear.8 mph40%29.80 "Hg6 mi
11:50 AM86 °FClear.9 mph46%29.80 "Hg6 mi
11:20 AM86 °FClear.8 mph46%29.80 "Hg6 mi
10:50 AM84 °FClear.6 mph51%29.80 "Hg6 mi
10:20 AM82 °FClear.6 mph55%29.77 "Hg5 mi
9:50 AM81 °FClear.8 mph62%29.80 "Hg5 mi
9:20 AM81 °FClear.9 mph66%29.77 "Hg5 mi
8:50 AM81 °FClear.9 mph66%29.77 "Hg5 mi
8:20 AM79 °FClear.13 mph70%29.77 "Hg5 mi
7:50 AM82 °FClear.8 mph51%29.77 "Hg4 mi
7:20 AM81 °FClear.6 mph51%29.71 "Hg4 mi
6:20 AM79 °FClear.2 mph48%29.71 "Hg5 mi
5:50 AM79 °FClear.5 mph48%29.71 "Hg5 mi
5:20 AM81 °FClear.9 mph45%29.71 "Hg10 mi
4:50 AM81 °FClear.1 mph45%29.71 "Hg10 mi
4:20 AM82 °FClear.5 mph40%29.71 "Hg10 mi
3:50 AM84 °FClear.2 mph37%29.71 "Hg10 mi
3:20 AM84 °FClear.1 mph37%29.71 "Hg10 mi
2:50 AM84 °FClear.5 mph40%29.71 "Hg10 mi
2:20 AM86 °FClear.7 mph38%29.74 "Hg10 mi
1:50 AM84 °FClear.5 mph40%29.74 "Hg10 mi
1:20 AM86 °FClear.2 mph35%29.74 "Hg10 mi
12:50 AM86 °FClear.3 mph35%29.74 "Hg10 mi
12:20 AM86 °FClear.9 mph35%29.74 "Hg10 mi
11:50 PM
Wed, May 27
88 °FClear.6 mph31%29.74 "Hg10 mi
11:20 PM88 °FClear.6 mph31%29.74 "Hg10 mi
10:50 PM88 °FClear.6 mph31%29.74 "Hg10 mi
10:20 PM90 °FClear.8 mph29%29.74 "Hg10 mi
9:50 PM90 °FClear.6 mph29%29.74 "Hg10 mi
9:20 PM90 °FClear.10 mph33%29.71 "Hg10 mi
8:50 PM97 °FClear.15 mph20%29.71 "Hg10 mi
8:20 PM100 °FSunny.3 mph20%29.65 "Hg10 mi
7:50 PM102 °FSunny.3 mph17%29.65 "Hg10 mi
7:20 PM104 °FSunny.3 mph15%29.65 "Hg10 mi
6:50 PM106 °FSunny.5 mph14%29.65 "Hg10 mi
6:20 PM108 °FSunny.5 mph13%29.65 "Hg10 mi
Weather by CustomWeather, © 2015

See weather overviewHow to use our weather pages